FLOCK 3P-32

Last updated on Wed Feb 14 2018 16:20:32 GMT+0000 (Coordinated Universal Time)

1 42023U 17008CD 18045.17695710 .00001284 00000-0 56099-4 0 9999 2 42023 97.4660 110.7106 0009491 70.1542 290.0717 15.23911021 55374
UTC large
Height (km)
Speed (km/s)
/
Latitude / Longitude
Inclination (degrees)
Orbital Period (minutes)
Azimuth
Elevation
Range (km)
Doppler Factor

Next 0 passes for location: London (51.5072 / 0.1276)

Sorry there are no passes over London.